| time (UTC) | temp C | wind direction | speed KPH | gust KPH | rain 1hr cm | rain 24hr cm | rain mn cm | humidity % | barometer mb |
| 20260509000518 | 8 | 0.0 | 1.6 | 0.00 | 0.00 | 0.00 | 91 | 1031.8 | |
| 20260508235518 | 8 | 0.0 | 0.0 | 0.00 | 0.00 | 0.00 | 91 | 1031.7 | |
| 20260508234619 | 8 | 0.0 | 0.0 | 0.00 | 0.00 | 0.00 | 91 | 1031.8 | |
| 20260508233518 | 7 | 0.0 | 0.0 | 0.00 | 0.00 | 0.00 | 91 | 1031.8 | |
| 20260508232518 | 7 | 0.0 | 0.0 | 0.00 | 0.00 | 0.00 | 91 | 1031.7 | |
| 20260508231518 | 7 | 0.0 | 0.0 | 0.00 | 0.00 | 0.00 | 89 | 1031.8 | |
| 20260508230519 | 7 | 0.0 | 0.0 | 0.00 | 0.00 | 0.00 | 90 | 1031.7 | |
| 20260508225518 | 7 | 0.0 | 0.0 | 0.00 | 0.00 | 0.00 | 89 | 1031.6 | |
| 20260508224518 | 7 | 0.0 | 0.0 | 0.00 | 0.00 | 0.00 | 90 | 1031.4 | |
| 20260508223538 | 7 | 0.0 | 0.0 | 0.00 | 0.00 | 0.00 | 88 | 1031.4 | |
| 20260508222519 | 8 | 0.0 | 0.0 | 0.00 | 0.00 | 0.00 | 88 | 1031.3 | |
| 20260508221518 | 8 | 0.0 | 0.0 | 0.00 | 0.00 | 0.00 | 88 | 1031.2 | |
| 20260508220518 | 8 | 0.0 | 1.6 | 0.00 | 0.00 | 0.00 | 89 | 1031.3 | |
| 20260508215518 | 8 | 0.0 | 0.0 | 0.00 | 0.00 | 0.00 | 88 | 1031.2 | |
| 20260508214518 | 8 | 0.0 | 0.0 | 0.00 | 0.00 | 0.00 | 88 | 1031.2 | |
| 20260508213518 | 8 | 0.0 | 0.0 | 0.00 | 0.00 | 0.00 | 88 | 1031.2 | |
| 20260508212518 | 8 | 0.0 | 1.6 | 0.00 | 0.00 | 0.00 | 87 | 1031.3 | |
| 20260508211518 | 9 | 0.0 | 0.0 | 0.00 | 0.00 | 0.00 | 86 | 1031.1 | |
| 20260508210518 | 9 | 0.0 | 0.0 | 0.00 | 0.00 | 0.00 | 86 | 1031.1 | |
| 20260508205518 | 10 | 0.0 | 0.0 | 0.00 | 0.00 | 0.00 | 87 | 1031.1 | |
| 20260508204518 | 10 | 0.0 | 0.0 | 0.00 | 0.00 | 0.00 | 87 | 1031.1 | |
| 20260508203538 | 10 | 0.0 | 0.0 | 0.00 | 0.00 | 0.00 | 86 | 1031.2 | |
| 20260508202518 | 10 | 0.0 | 0.0 | 0.00 | 0.00 | 0.00 | 86 | 1031.1 | |
| 20260508201518 | 10 | 0.0 | 1.6 | 0.00 | 0.00 | 0.00 | 85 | 1031.0 | |
| 20260508200518 | 10 | 0.0 | 1.6 | 0.00 | 0.00 | 0.00 | 85 | 1030.8 | |
| 20260508195518 | 10 | 0.0 | 0.0 | 0.00 | 0.00 | 0.00 | 84 | 1030.7 | |
| 20260508194518 | 10 | 0.0 | 1.6 | 0.00 | 0.00 | 0.00 | 84 | 1030.7 | |
| 20260508193518 | 11 | 0.0 | 1.6 | 0.00 | 0.00 | 0.00 | 84 | 1030.6 | |
| 20260508192558 | 11 | 0.0 | 14.5 | 0.00 | 0.00 | 0.00 | 84 | 1030.8 | |
| 20260508191518 | 10 | 0.0 | 4.8 | 0.00 | 0.00 | 0.00 | 84 | 1030.7 | |
| 20260508190518 | 10 | 0.0 | 1.6 | 0.00 | 0.00 | 0.00 | 84 | 1030.7 | |
| 20260508185538 | 11 | 0.0 | 1.6 | 0.00 | 0.00 | 0.00 | 84 | 1030.8 | |
| 20260508184518 | 11 | 0.0 | 1.6 | 0.00 | 0.00 | 0.00 | 84 | 1030.8 | |
| 20260508183518 | 11 | 0.0 | 1.6 | 0.00 | 0.00 | 0.00 | 83 | 1030.8 | |
| 20260508182517 | 11 | 0.0 | 4.8 | 0.00 | 0.00 | 0.00 | 84 | 1030.7 | |
| 20260508181518 | 11 | 0.0 | 1.6 | 0.00 | 0.00 | 0.00 | 84 | 1030.7 | |
| 20260508180517 | 11 | 0.0 | 1.6 | 0.00 | 0.00 | 0.00 | 84 | 1030.8 | |
| 20260508175517 | 11 | 0.0 | 1.6 | 0.00 | 0.00 | 0.00 | 85 | 1030.8 | |
| 20260508174518 | 11 | 0.0 | 1.6 | 0.00 | 0.00 | 0.00 | 85 | 1030.8 | |
| 20260508173517 | 11 | 0.0 | 1.6 | 0.00 | 0.00 | 0.00 | 85 | 1030.8 | |
| 20260508172517 | 11 | 0.0 | 0.0 | 0.00 | 0.00 | 0.00 | 85 | 1030.8 | |
| 20260508171538 | 11 | 0.0 | 1.6 | 0.00 | 0.00 | 0.00 | 85 | 1030.8 | |
| 20260508170517 | 11 | 0.0 | 1.6 | 0.00 | 0.00 | 0.00 | 85 | 1030.9 | |
| 20260508165517 | 11 | 0.0 | 1.6 | 0.00 | 0.00 | 0.00 | 85 | 1030.9 | |
| 20260508164518 | 11 | 0.0 | 1.6 | 0.00 | 0.00 | 0.00 | 86 | 1031.0 | |
| 20260508163517 | 11 | 0.0 | 0.0 | 0.00 | 0.00 | 0.00 | 85 | 1031.0 | |
| 20260508162557 | 11 | 0.0 | 0.0 | 0.00 | 0.00 | 0.00 | 85 | 1031.1 | |
| 20260508161517 | 11 | 0.0 | 0.0 | 0.00 | 0.00 | 0.00 | 84 | 1031.1 | |
| 20260508160518 | 12 | 0.0 | 0.0 | 0.00 | 0.00 | 0.00 | 84 | 1031.0 | |
| 20260508155518 | 12 | 0.0 | 1.6 | 0.00 | 0.00 | 0.00 | 84 | 1031.1 | |
| 20260508154518 | 12 | 0.0 | 0.0 | 0.00 | 0.00 | 0.00 | 84 | 1031.2 | |
| 20260508153518 | 12 | 0.0 | 4.8 | 0.00 | 0.00 | 0.00 | 84 | 1031.1 | |
| 20260508152518 | 12 | 0.0 | 1.6 | 0.00 | 0.00 | 0.00 | 84 | 1031.4 | |
| 20260508151518 | 12 | 0.0 | 1.6 | 0.00 | 0.00 | 0.00 | 83 | 1031.4 | |
| 20260508150618 | 12 | 0.0 | 6.4 | 0.00 | 0.00 | 0.00 | 84 | 1031.4 | |
| 20260508150018 | 12 | 0.0 | 1.6 | 0.00 | 0.00 | 0.00 | 84 | 1031.5 | |
| 20260508145018 | 12 | 0.0 | 1.6 | 0.00 | 0.00 | 0.00 | 84 | 1031.5 | |
| 20260508144021 | 12 | 0.0 | 1.6 | 0.00 | 0.00 | 0.00 | 84 | 1031.6 | |
| 20260508143021 | 12 | 0.0 | 6.4 | 0.00 | 0.00 | 0.00 | 84 | 1031.8 | |
| 20260508142041 | 12 | 0.0 | 1.6 | 0.00 | 0.00 | 0.00 | 84 | 1031.9 | |
| 20260508141018 | 12 | 0.0 | 1.6 | 0.00 | 0.00 | 0.00 | 84 | 1031.9 | |
| 20260508140103 | 12 | 0.0 | 1.6 | 0.00 | 0.00 | 0.00 | 84 | 1031.9 | |
| 20260508135018 | 12 | 0.0 | 1.6 | 0.00 | 0.00 | 0.00 | 84 | 1031.8 | |
| 20260508134025 | 12 | 0.0 | 1.6 | 0.00 | 0.00 | 0.00 | 84 | 1031.9 | |
| 20260508133024 | 12 | 0.0 | 1.6 | 0.00 | 0.00 | 0.00 | 84 | 1031.9 | |
| 20260508132038 | 12 | 0.0 | 1.6 | 0.00 | 0.00 | 0.00 | 84 | 1032.0 | |
| 20260508131038 | 12 | 0.0 | 3.2 | 0.00 | 0.00 | 0.00 | 84 | 1031.9 | |
| 20260508130037 | 12 | 0.0 | 1.6 | 0.00 | 0.00 | 0.00 | 85 | 1031.8 | |
| 20260508125018 | 12 | 0.0 | 0.0 | 0.00 | 0.00 | 0.00 | 85 | 1031.8 | |
| 20260508124017 | 12 | 0.0 | 0.0 | 0.00 | 0.00 | 0.00 | 84 | 1031.8 | |
| 20260508123017 | 13 | 0.0 | 0.0 | 0.00 | 0.00 | 0.00 | 84 | 1031.7 | |
| 20260508122017 | 13 | 0.0 | 0.0 | 0.00 | 0.00 | 0.00 | 84 | 1031.7 | |
| 20260508121017 | 13 | 0.0 | 1.6 | 0.00 | 0.00 | 0.00 | 83 | 1031.7 | |
| 20260508120017 | 13 | 0.0 | 1.6 | 0.00 | 0.00 | 0.00 | 83 | 1031.8 | |
| 20260508115018 | 13 | 0.0 | 1.6 | 0.00 | 0.00 | 0.00 | 82 | 1031.7 | |
| 20260508114017 | 13 | 0.0 | 1.6 | 0.00 | 0.00 | 0.00 | 82 | 1031.7 | |
| 20260508113017 | 13 | 0.0 | 3.2 | 0.00 | 0.00 | 0.00 | 81 | 1031.6 | |
| 20260508112017 | 13 | 0.0 | 1.6 | 0.00 | 0.00 | 0.00 | 81 | 1031.7 | |
| 20260508111018 | 13 | 0.0 | 3.2 | 0.00 | 0.00 | 0.00 | 81 | 1031.7 | |
| 20260508110037 | 13 | 0.0 | 6.4 | 0.00 | 0.00 | 0.00 | 81 | 1031.7 | |
| 20260508105017 | 14 | 0.0 | 4.8 | 0.00 | 0.00 | 0.00 | 81 | 1031.8 | |
| 20260508104017 | 14 | 0.0 | 4.8 | 0.00 | 0.00 | 0.00 | 80 | 1031.9 | |
| 20260508103017 | 14 | 0.0 | 4.8 | 0.00 | 0.00 | 0.00 | 80 | 1031.8 | |
| 20260508102017 | 14 | 0.0 | 4.8 | 0.00 | 0.00 | 0.00 | 79 | 1031.8 | |
| 20260508101017 | 15 | 0.0 | 4.8 | 0.00 | 0.00 | 0.00 | 79 | 1031.5 | |
| 20260508100018 | 15 | 0.0 | 3.2 | 0.00 | 0.00 | 0.00 | 78 | 1031.4 | |
| 20260508095017 | 15 | 113 | 1.6 | 9.7 | 0.00 | 0.00 | 0.00 | 78 | 1031.2 |
| 20260508094017 | 15 | 0.0 | 3.2 | 0.00 | 0.00 | 0.00 | 78 | 1031.2 | |
| 20260508093017 | 15 | 0.0 | 6.4 | 0.00 | 0.00 | 0.00 | 77 | 1031.2 | |
| 20260508092037 | 15 | 68 | 1.6 | 8.0 | 0.00 | 0.00 | 0.00 | 76 | 1031.1 |
| 20260508091019 | 16 | 113 | 1.6 | 8.0 | 0.00 | 0.00 | 0.00 | 76 | 1031.2 |
| 20260508090019 | 16 | 0.0 | 4.8 | 0.00 | 0.00 | 0.00 | 75 | 1031.0 | |
| 20260508085019 | 16 | 90 | 3.2 | 9.7 | 0.00 | 0.00 | 0.00 | 74 | 1030.9 |
| 20260508084019 | 17 | 90 | 1.6 | 9.7 | 0.00 | 0.00 | 0.00 | 74 | 1031.0 |
| 20260508083019 | 17 | 113 | 3.2 | 17.7 | 0.00 | 0.00 | 0.00 | 73 | 1031.0 |
| 20260508082120 | 17 | 90 | 1.6 | 6.4 | 0.00 | 0.00 | 0.00 | 72 | 1030.9 |
| 20260508081519 | 17 | 90 | 3.2 | 17.7 | 0.00 | 0.00 | 0.00 | 72 | 1031.0 |
| 20260508080519 | 17 | 90 | 3.2 | 11.3 | 0.00 | 0.00 | 0.00 | 72 | 1031.0 |
| 20260508075519 | 17 | 90 | 3.2 | 11.3 | 0.00 | 0.00 | 0.00 | 72 | 1031.0 |
| 20260508074519 | 18 | 90 | 3.2 | 12.9 | 0.00 | 0.00 | 0.00 | 71 | 1031.1 |
| 20260508073519 | 18 | 90 | 1.6 | 8.0 | 0.00 | 0.00 | 0.00 | 72 | 1031.0 |
| 20260508072519 | 18 | 90 | 3.2 | 11.3 | 0.00 | 0.00 | 0.00 | 71 | 1030.9 |
| 20260508071519 | 18 | 113 | 3.2 | 11.3 | 0.00 | 0.00 | 0.00 | 70 | 1030.9 |
| 20260508070519 | 18 | 113 | 1.6 | 9.7 | 0.00 | 0.00 | 0.00 | 70 | 1030.9 |
| 20260508065519 | 18 | 90 | 3.2 | 9.7 | 0.00 | 0.00 | 0.00 | 69 | 1031.0 |
| 20260508064559 | 18 | 90 | 1.6 | 9.7 | 0.00 | 0.00 | 0.00 | 70 | 1031.0 |
| 20260508063539 | 18 | 90 | 1.6 | 6.4 | 0.00 | 0.00 | 0.00 | 72 | 1030.9 |
| 20260508062519 | 19 | 113 | 4.8 | 11.3 | 0.00 | 0.00 | 0.00 | 70 | 1031.0 |
| 20260508061519 | 20 | 113 | 1.6 | 8.0 | 0.00 | 0.00 | 0.00 | 64 | 1031.1 |
| 20260508060519 | 20 | 90 | 1.6 | 6.4 | 0.00 | 0.00 | 0.00 | 61 | 1031.2 |
| 20260508055519 | 20 | 113 | 3.2 | 8.0 | 0.00 | 0.00 | 0.00 | 62 | 1031.2 |
| 20260508054519 | 20 | 90 | 3.2 | 9.7 | 0.00 | 0.00 | 0.00 | 63 | 1031.5 |
| 20260508053519 | 20 | 113 | 1.6 | 6.4 | 0.00 | 0.00 | 0.00 | 61 | 1031.7 |
| 20260508052519 | 19 | 113 | 1.6 | 4.8 | 0.00 | 0.00 | 0.00 | 63 | 1031.9 |
| 20260508051518 | 20 | 90 | 1.6 | 8.0 | 0.00 | 0.00 | 0.00 | 63 | 1031.9 |
| 20260508050519 | 19 | 113 | 1.6 | 8.0 | 0.00 | 0.00 | 0.00 | 63 | 1032.1 |
| 20260508045519 | 19 | 113 | 1.6 | 8.0 | 0.00 | 0.00 | 0.00 | 63 | 1032.2 |
| 20260508044518 | 20 | 113 | 3.2 | 9.7 | 0.00 | 0.00 | 0.00 | 62 | 1032.2 |
| 20260508043518 | 20 | 113 | 1.6 | 6.4 | 0.00 | 0.00 | 0.00 | 62 | 1032.6 |
| 20260508042519 | 20 | 113 | 1.6 | 9.7 | 0.00 | 0.00 | 0.00 | 63 | 1032.6 |
| 20260508041538 | 20 | 113 | 1.6 | 4.8 | 0.00 | 0.00 | 0.00 | 65 | 1032.8 |
| 20260508040518 | 19 | 113 | 1.6 | 6.4 | 0.00 | 0.00 | 0.00 | 65 | 1033.1 |
| 20260508035519 | 18 | 113 | 1.6 | 9.7 | 0.00 | 0.00 | 0.00 | 67 | 1033.3 |
| 20260508034518 | 18 | 90 | 1.6 | 6.4 | 0.00 | 0.00 | 0.00 | 67 | 1033.4 |
| 20260508033518 | 18 | 68 | 1.6 | 4.8 | 0.00 | 0.00 | 0.00 | 69 | 1033.5 |
| 20260508032539 | 18 | 90 | 1.6 | 4.8 | 0.00 | 0.00 | 0.00 | 70 | 1033.6 |
| 20260508031518 | 18 | 0.0 | 4.8 | 0.00 | 0.00 | 0.00 | 72 | 1033.9 | |
| 20260508030518 | 17 | 0.0 | 6.4 | 0.00 | 0.00 | 0.00 | 73 | 1034.0 | |
| 20260508025538 | 17 | 113 | 1.6 | 6.4 | 0.00 | 0.00 | 0.00 | 75 | 1034.2 |
| 20260508024519 | 16 | 113 | 1.6 | 8.0 | 0.00 | 0.00 | 0.00 | 75 | 1034.2 |
| 20260508023518 | 16 | 113 | 1.6 | 6.4 | 0.00 | 0.00 | 0.00 | 76 | 1034.4 |
| 20260508022519 | 16 | 0.0 | 3.2 | 0.00 | 0.00 | 0.00 | 78 | 1034.5 | |
| 20260508021519 | 16 | 0.0 | 4.8 | 0.00 | 0.00 | 0.00 | 78 | 1034.5 | |
| 20260508020539 | 15 | 0.0 | 4.8 | 0.00 | 0.00 | 0.00 | 79 | 1034.6 | |
| 20260508015518 | 15 | 0.0 | 4.8 | 0.00 | 0.00 | 0.00 | 79 | 1034.6 | |
| 20260508014538 | 15 | 90 | 1.6 | 3.2 | 0.00 | 0.00 | 0.00 | 80 | 1034.7 |
| 20260508013518 | 14 | 90 | 1.6 | 4.8 | 0.00 | 0.00 | 0.00 | 81 | 1034.7 |
| 20260508012518 | 14 | 0.0 | 3.2 | 0.00 | 0.00 | 0.00 | 81 | 1034.8 | |
| 20260508011518 | 13 | 0.0 | 3.2 | 0.00 | 0.00 | 0.00 | 82 | 1034.9 | |
| 20260508010518 | 13 | 0.0 | 3.2 | 0.00 | 0.00 | 0.00 | 82 | 1034.9 | |
| 20260508005518 | 13 | 0.0 | 1.6 | 0.00 | 0.00 | 0.00 | 83 | 1034.8 | |
| 20260508004538 | 12 | 0.0 | 1.6 | 0.00 | 0.00 | 0.00 | 85 | 1034.9 | |
| 20260508003518 | 12 | 0.0 | 3.2 | 0.00 | 0.00 | 0.00 | 87 | 1034.9 | |
| 20260508002518 | 12 | 0.0 | 1.6 | 0.00 | 0.00 | 0.00 | 90 | 1034.9 | |
| 20260508001518 | 11 | 0.0 | 0.0 | 0.00 | 0.03 | 0.00 | 93 | 1035.0 |